Tracking 20093 objects as of 16-Dec-2019
HD Live streaming from Space Station
objects crossing your sky now

STARLINK-70

Track STARLINK-70 now!
10-day predictions
STARLINK-70 is classified as:


NORAD ID: 44281
Int'l Code: 2019-029AY
Perigee: 536.1 km
Apogee: 537.7 km
Inclination: 53.0 °
Period: 95.2 minutes
Semi major axis: 6907 km
RCS: Unknown
Launch date: May 24, 2019
Source: United States (US)
Launch site: AIR FORCE EASTERN TEST RANGE (AFETR)
aabbcc
Your satellite tracking list
Your tracking list is empty




NASA's NSSDC Master Catalog

Two Line Element Set (TLE):
1 44281U 19029AY  19349.25001157 -.00011015  00000-0 -61590-3 0  9991
2 44281  53.0021 330.0812 0001130  89.3749 212.8103 15.12121394 31015
Source of the keplerian elements: AFSPC